Location: Sternwarte auf dem Internationalen Platz Vogelsang IP
(50.5721°N, 6.4398°E)
Time: 21:31:45
(UTC+01:00)

ISS - Visible Passes

Search period start: 10 November 2025 00:00
Search period end: 20 November 2025 00:00
Orbit: 415 x 421 km, 51.6° (Epoch: 09 November)

Date Brightness Start Highest point End Pass type
(mag) Time Alt. Az. Time Alt. Az. Time Alt. Az.
12 Nov -1.1 19:01:06 10° S 19:01:19 11° S 19:01:19 11° S visible
13 Nov -1.3 18:14:50 10° SSE 18:15:30 10° SE 18:15:36 10° SE visible
13 Nov -0.6 19:48:24 10° SW 19:48:33 11° SW 19:48:33 11° SW visible
14 Nov -2.2 19:00:44 10° SSW 19:02:43 26° S 19:02:43 26° S visible
15 Nov -2.2 18:13:13 10° SSW 18:15:53 22° SE 18:16:48 20° ESE visible
15 Nov -0.8 19:48:59 10° WSW 19:49:45 16° WSW 19:49:45 16° WSW visible
16 Nov -1.6 17:26:01 10° S 17:28:04 15° SE 17:30:08 10° ESE visible
16 Nov -3.1 19:01:02 10° WSW 19:03:45 49° SSW 19:03:45 49° SSW visible
17 Nov -3.2 18:13:11 10° SW 18:16:23 44° SSE 18:17:41 28° E visible
17 Nov -0.8 19:49:43 10° W 19:50:37 17° W 19:50:37 17° W visible
18 Nov -2.5 17:25:27 10° SSW 17:28:27 31° SSE 17:31:27 10° E visible
18 Nov -3.3 19:01:39 10° WSW 19:04:30 61° W 19:04:30 61° W visible
19 Nov -3.8 18:13:36 10° WSW 18:16:57 77° SSE 18:18:20 32° E visible
19 Nov -0.7 19:50:26 10° W 19:51:15 16° W 19:51:15 16° W visible
